Location: Waco, TX
(31.5480°N, 97.1670°W)
Time: 07:04:21
(UTC-05:00)

ISS - Pass Details

Date: 23 September 2022
Orbit: 414 x 417 km, 51.6° (Epoch: 01 October)

Event Time Altitude Azimuth Distance (km) Brightness Sun altitude
Rises 16:24:57 0° 205° (SSW) 2,336 0.7 36.1°
Reaches altitude 10° 16:27:08 10° 196° (SSW) 1,479 -0.3 35.7°
Maximum altitude 16:30:10 33° 130° (SE) 719 -2.5 35.1°
Drops below altitude 10° 16:33:12 10° 64° (ENE) 1,489 -1.4 34.5°
Sets 16:35:25 0° 55° (NE) 2,356 -0.5 34.1°
